Station Historical Data
Daily Summary for May 9, 2017 Units:  English    Metric   Both
« Previous Day
Next Day »
Daily Weekly Monthly Yearly Custom
  High: Low: Average:
Temperature: 75.8 °F 54.4 °F 65.3 °F
Dew Point: 53.6 °F 36.7 °F 47.3 °F
Humidity: 77 % 36 % 53 %
Wind Speed: 10.0 mph 0.0 mph 2.1 mph
Wind Gust: 14.0 mph - -
Wind:- - SSE
Pressure: 29.90 in 29.80 in -
Precipitation: 0.00 in    
Historical Graphs
 
 
Tabular Data for May 9, 2017
Time Temperature Dew Point Pressure Wind Wind Speed Wind Gust Humidity Rainfall Rate (Hourly) solar
00:01 58.7 °F 51.5 °F 29.90 in East 8.0 mph 12.0 mph 77 % 0.00 in 0.00 W/m2
00:06 58.7 °F 51.5 °F 29.89 in ESE 6.0 mph 12.0 mph 77 % 0.00 in 0.00 W/m2
00:11 58.6 °F 51.4 °F 29.89 in East 4.0 mph 11.0 mph 77 % 0.00 in 0.00 W/m2
00:16 58.6 °F 51.4 °F 29.89 in East 1.0 mph 8.0 mph 77 % 0.00 in 0.00 W/m2
00:21 58.5 °F 51.3 °F 29.89 in East 5.0 mph 8.0 mph 77 % 0.00 in 0.00 W/m2
00:26 58.4 °F 50.9 °F 29.89 in East 7.0 mph 7.0 mph 76 % 0.00 in 0.00 W/m2
00:31 58.4 °F 50.9 °F 29.88 in East 6.0 mph 9.0 mph 76 % 0.00 in 0.00 W/m2
00:36 58.3 °F 50.8 °F 29.89 in ESE 7.0 mph 8.0 mph 76 % 0.00 in 0.00 W/m2
00:41 58.2 °F 50.3 °F 29.89 in ESE 2.0 mph 7.0 mph 75 % 0.00 in 0.00 W/m2
00:46 58.2 °F 50.3 °F 29.89 in ESE 6.0 mph 7.0 mph 75 % 0.00 in 0.00 W/m2
00:51 58.1 °F 50.2 °F 29.89 in East 2.0 mph 11.0 mph 75 % 0.00 in 0.00 W/m2
00:56 58.0 °F 50.5 °F 29.88 in East 4.0 mph 11.0 mph 76 % 0.00 in 0.00 W/m2
01:01 57.9 °F 50.0 °F 29.88 in East 5.0 mph 7.0 mph 75 % 0.00 in 0.00 W/m2
01:06 57.8 °F 49.9 °F 29.88 in East 6.0 mph 8.0 mph 75 % 0.00 in 0.00 W/m2
01:11 57.6 °F 49.8 °F 29.88 in East 5.0 mph 8.0 mph 75 % 0.00 in 0.00 W/m2
01:16 57.5 °F 49.7 °F 29.88 in East 3.0 mph 6.0 mph 75 % 0.00 in 0.00 W/m2
01:21 57.4 °F 49.5 °F 29.87 in East 3.0 mph 5.0 mph 75 % 0.00 in 0.00 W/m2
01:26 57.3 °F 49.5 °F 29.87 in East 3.0 mph 4.0 mph 75 % 0.00 in 0.00 W/m2
01:31 57.2 °F 49.0 °F 29.87 in East 2.0 mph 2.0 mph 74 % 0.00 in 0.00 W/m2
01:36 57.1 °F 48.9 °F 29.87 in East 3.0 mph 4.0 mph 74 % 0.00 in 0.00 W/m2
01:41 57.0 °F 48.8 °F 29.86 in Calm     74 % 0.00 in 0.00 W/m2
01:46 57.0 °F 49.2 °F 29.86 in East 2.0 mph 5.0 mph 75 % 0.00 in 0.00 W/m2
01:51 57.0 °F 48.8 °F 29.86 in East 3.0 mph 3.0 mph 74 % 0.00 in 0.00 W/m2
01:56 56.9 °F 48.7 °F 29.85 in East 8.0 mph 8.0 mph 74 % 0.00 in 0.00 W/m2
02:01 56.9 °F 49.1 °F 29.86 in East 1.0 mph 5.0 mph 75 % 0.00 in 0.00 W/m2
02:06 56.8 °F 48.6 °F 29.85 in East 2.0 mph 7.0 mph 74 % 0.00 in 0.00 W/m2
02:11 56.7 °F 48.5 °F 29.85 in East 4.0 mph 6.0 mph 74 % 0.00 in 0.00 W/m2
02:16 56.5 °F 48.0 °F 29.85 in East 5.0 mph 6.0 mph 73 % 0.00 in 0.00 W/m2
02:21 56.3 °F 47.4 °F 29.85 in East 7.0 mph 7.0 mph 72 % 0.00 in 0.00 W/m2
02:26 56.2 °F 47.3 °F 29.85 in East 4.0 mph 6.0 mph 72 % 0.00 in 0.00 W/m2
02:31 56.1 °F 46.8 °F 29.85 in East 5.0 mph 6.0 mph 71 % 0.00 in 0.00 W/m2
02:32 56.1 °F 46.8 °F 29.85 in East 4.0 mph 6.0 mph 71 % 0.00 in 0.00 W/m2
02:37 56.0 °F 46.4 °F 29.85 in East 4.0 mph 7.0 mph 70 % 0.00 in 0.00 W/m2
02:42 55.8 °F 45.8 °F 29.85 in East 4.0 mph 6.0 mph 69 % 0.00 in 0.00 W/m2
02:47 55.7 °F 45.7 °F 29.85 in East 2.0 mph 6.0 mph 69 % 0.00 in 0.00 W/m2
02:52 55.6 °F 45.6 °F 29.85 in Calm   3.0 mph 69 % 0.00 in 0.00 W/m2
02:57 55.6 °F 44.8 °F 29.85 in East 2.0 mph 3.0 mph 67 % 0.00 in 0.00 W/m2
03:02 55.5 °F 44.3 °F 29.86 in East 4.0 mph 6.0 mph 66 % 0.00 in 0.00 W/m2
03:07 55.5 °F 43.9 °F 29.86 in East 1.0 mph 3.0 mph 65 % 0.00 in 0.00 W/m2
03:12 55.4 °F 43.8 °F 29.86 in East 1.0 mph 4.0 mph 65 % 0.00 in 0.00 W/m2
03:17 55.3 °F 42.5 °F 29.86 in East 5.0 mph 5.0 mph 62 % 0.00 in 0.00 W/m2
03:22 55.3 °F 42.1 °F 29.86 in East 1.0 mph 5.0 mph 61 % 0.00 in 0.00 W/m2
03:27 55.2 °F 42.4 °F 29.86 in East 3.0 mph 3.0 mph 62 % 0.00 in 0.00 W/m2
03:32 55.1 °F 41.9 °F 29.86 in East 2.0 mph 5.0 mph 61 % 0.00 in 0.00 W/m2
03:37 55.0 °F 42.2 °F 29.86 in East 5.0 mph 5.0 mph 62 % 0.00 in 0.00 W/m2
03:42 54.9 °F 40.9 °F 29.86 in East 1.0 mph 6.0 mph 59 % 0.00 in 0.00 W/m2
03:47 54.8 °F 40.3 °F 29.86 in East 6.0 mph 8.0 mph 58 % 0.00 in 0.00 W/m2
03:52 54.7 °F 39.8 °F 29.85 in Calm   5.0 mph 57 % 0.00 in 0.00 W/m2
03:53 54.7 °F 39.8 °F 29.85 in East 4.0 mph 6.0 mph 57 % 0.00 in 0.00 W/m2
03:58 54.7 °F 40.2 °F 29.85 in East 1.0 mph 7.0 mph 58 % 0.00 in 0.00 W/m2
04:03 54.6 °F 39.7 °F 29.85 in East 2.0 mph 5.0 mph 57 % 0.00 in 0.00 W/m2
04:08 54.6 °F 40.1 °F 29.85 in East 2.0 mph 7.0 mph 58 % 0.00 in 0.00 W/m2
04:13 54.6 °F 40.1 °F 29.85 in East 4.0 mph 7.0 mph 58 % 0.00 in 0.00 W/m2
04:18 54.5 °F 39.6 °F 29.85 in East 2.0 mph 8.0 mph 57 % 0.00 in 0.00 W/m2
04:23 54.5 °F 39.6 °F 29.85 in East 5.0 mph 11.0 mph 57 % 0.00 in 0.00 W/m2
04:28 54.4 °F 39.5 °F 29.85 in ESE 9.0 mph 9.0 mph 57 % 0.00 in 0.00 W/m2
04:33 54.4 °F 39.0 °F 29.85 in ESE 6.0 mph 11.0 mph 56 % 0.00 in 0.00 W/m2
04:38 54.4 °F 39.0 °F 29.85 in East 2.0 mph 11.0 mph 56 % 0.00 in 0.00 W/m2
04:43 54.4 °F 39.0 °F 29.85 in East 5.0 mph 12.0 mph 56 % 0.00 in 0.00 W/m2
04:48 54.4 °F 38.6 °F 29.85 in East 6.0 mph 8.0 mph 55 % 0.00 in 0.00 W/m2
04:53 54.5 °F 39.1 °F 29.85 in East 6.0 mph 13.0 mph 56 % 0.00 in 0.00 W/m2
04:58 54.6 °F 38.8 °F 29.85 in East 9.0 mph 12.0 mph 55 % 0.00 in 0.00 W/m2
05:03 54.6 °F 38.3 °F 29.85 in East 10.0 mph 10.0 mph 54 % 0.00 in 0.00 W/m2
05:08 54.7 °F 37.9 °F 29.85 in East 6.0 mph 9.0 mph 53 % 0.00 in 0.00 W/m2
05:09 54.7 °F 38.4 °F 29.85 in ESE 2.0 mph 9.0 mph 54 % 0.00 in 0.00 W/m2
05:14 54.8 °F 37.5 °F 29.85 in East 4.0 mph 11.0 mph 52 % 0.00 in 0.00 W/m2
05:19 54.9 °F 37.6 °F 29.84 in Calm   9.0 mph 52 % 0.00 in 0.00 W/m2
05:24 55.0 °F 38.2 °F 29.85 in East 6.0 mph 9.0 mph 53 % 0.00 in 0.00 W/m2
05:29 55.0 °F 37.7 °F 29.85 in East 6.0 mph 9.0 mph 52 % 0.00 in 0.00 W/m2
05:34 55.1 °F 36.8 °F 29.85 in ESE 2.0 mph 13.0 mph 50 % 0.00 in 0.00 W/m2
05:39 55.2 °F 37.4 °F 29.84 in East 7.0 mph 13.0 mph 51 % 0.00 in 0.00 W/m2
05:44 55.3 °F 37.5 °F 29.84 in SE 1.0 mph 11.0 mph 51 % 0.00 in 0.00 W/m2
05:49 55.4 °F 37.6 °F 29.84 in East 6.0 mph 11.0 mph 51 % 0.00 in 0.00 W/m2
05:54 55.5 °F 36.7 °F 29.84 in Calm   12.0 mph 49 % 0.00 in 5.00 W/m2
05:59 55.7 °F 36.8 °F 29.84 in East 2.0 mph 12.0 mph 49 % 0.00 in 7.00 W/m2
06:04 55.9 °F 38.0 °F 29.84 in ENE 8.0 mph 12.0 mph 51 % 0.00 in 11.00 W/m2
06:09 56.0 °F 37.6 °F 29.84 in East 4.0 mph 13.0 mph 50 % 0.00 in 14.00 W/m2
06:14 56.0 °F 37.1 °F 29.84 in ESE 8.0 mph 9.0 mph 49 % 0.00 in 14.00 W/m2
06:19 56.0 °F 37.6 °F 29.84 in Calm   13.0 mph 50 % 0.00 in 18.00 W/m2
06:24 56.1 °F 37.2 °F 29.84 in ESE 1.0 mph 14.0 mph 49 % 0.00 in 21.00 W/m2
06:29 56.1 °F 37.2 °F 29.84 in ESE 1.0 mph 11.0 mph 49 % 0.00 in 28.00 W/m2
06:34 56.1 °F 37.7 °F 29.84 in ESE 2.0 mph 9.0 mph 50 % 0.00 in 33.00 W/m2
06:39 56.1 °F 37.2 °F 29.85 in East 1.0 mph 8.0 mph 49 % 0.00 in 46.00 W/m2
06:44 56.1 °F 37.2 °F 29.85 in East 1.0 mph 6.0 mph 49 % 0.00 in 60.00 W/m2
06:49 56.1 °F 37.7 °F 29.85 in East 1.0 mph 8.0 mph 50 % 0.00 in 77.00 W/m2
06:54 56.1 °F 38.2 °F 29.85 in East 4.0 mph 8.0 mph 51 % 0.00 in 54.00 W/m2
06:59 56.0 °F 38.6 °F 29.84 in East 2.0 mph 8.0 mph 52 % 0.00 in 70.00 W/m2
07:04 56.0 °F 39.1 °F 29.85 in East 7.0 mph 12.0 mph 53 % 0.00 in 88.00 W/m2
07:09 55.9 °F 39.0 °F 29.85 in East 1.0 mph 11.0 mph 53 % 0.00 in 95.00 W/m2
07:14 55.9 °F 39.0 °F 29.85 in ENE 7.0 mph 10.0 mph 53 % 0.00 in 104.00 W/m2
07:19 56.0 °F 39.1 °F 29.85 in East 5.0 mph 11.0 mph 53 % 0.00 in 128.00 W/m2
07:25 56.0 °F 39.1 °F 29.85 in East 1.0 mph 11.0 mph 53 % 0.00 in 137.00 W/m2
07:30 56.1 °F 40.2 °F 29.86 in East 1.0 mph 5.0 mph 55 % 0.00 in 229.00 W/m2
07:35 56.3 °F 40.4 °F 29.86 in East 5.0 mph 7.0 mph 55 % 0.00 in 260.00 W/m2
07:40 56.4 °F 40.0 °F 29.86 in ENE 3.0 mph 8.0 mph 54 % 0.00 in 290.00 W/m2
07:45 56.5 °F 40.1 °F 29.86 in ENE 2.0 mph 8.0 mph 54 % 0.00 in 274.00 W/m2
07:50 56.7 °F 40.3 °F 29.86 in ENE 3.0 mph 6.0 mph 54 % 0.00 in 350.00 W/m2
07:55 57.1 °F 40.6 °F 29.86 in Calm   4.0 mph 54 % 0.00 in 385.00 W/m2
08:00 57.4 °F 41.8 °F 29.86 in ENE 1.0 mph 6.0 mph 56 % 0.00 in 422.00 W/m2
08:05 57.8 °F 42.7 °F 29.86 in ENE 1.0 mph 7.0 mph 57 % 0.00 in 446.00 W/m2
08:10 58.3 °F 43.2 °F 29.86 in ENE 5.0 mph 7.0 mph 57 % 0.00 in 473.00 W/m2
08:15 58.6 °F 43.4 °F 29.86 in ENE 3.0 mph 8.0 mph 57 % 0.00 in 494.00 W/m2
08:20 59.0 °F 44.3 °F 29.86 in ENE 3.0 mph 6.0 mph 58 % 0.00 in 510.00 W/m2
08:25 59.4 °F 44.6 °F 29.86 in East 5.0 mph 8.0 mph 58 % 0.00 in 520.00 W/m2
08:30 59.9 °F 46.0 °F 29.86 in East 5.0 mph 6.0 mph 60 % 0.00 in 520.00 W/m2
08:36 60.2 °F 44.9 °F 29.86 in ENE 1.0 mph 14.0 mph 57 % 0.00 in 468.00 W/m2
08:41 60.7 °F 46.3 °F 29.86 in Calm   5.0 mph 59 % 0.00 in 640.00 W/m2
08:46 61.1 °F 46.7 °F 29.87 in East 3.0 mph 10.0 mph 59 % 0.00 in 439.00 W/m2
08:51 61.5 °F 44.2 °F 29.87 in East 3.0 mph 5.0 mph 53 % 0.00 in 350.00 W/m2
08:56 62.1 °F 47.6 °F 29.87 in Calm   4.0 mph 59 % 0.00 in 248.00 W/m2
09:01 62.5 °F 44.7 °F 29.87 in Calm   1.0 mph 52 % 0.00 in 258.00 W/m2
09:06 62.9 °F 45.5 °F 29.87 in Calm     53 % 0.00 in 308.00 W/m2
09:11 63.2 °F 46.8 °F 29.86 in Calm     55 % 0.00 in 519.00 W/m2
09:16 63.4 °F 47.5 °F 29.87 in Calm     56 % 0.00 in 592.00 W/m2
09:21 63.6 °F 48.1 °F 29.87 in Calm     57 % 0.00 in 640.00 W/m2
09:26 63.8 °F 48.8 °F 29.86 in Calm     58 % 0.00 in 649.00 W/m2
09:31 64.0 °F 48.0 °F 29.86 in Calm     56 % 0.00 in 659.00 W/m2
09:36 64.1 °F 48.1 °F 29.86 in Calm     56 % 0.00 in 670.00 W/m2
09:41 64.3 °F 47.8 °F 29.86 in Calm     55 % 0.00 in 686.00 W/m2
09:46 64.4 °F 46.4 °F 29.86 in Calm     52 % 0.00 in 696.00 W/m2
09:51 64.6 °F 44.5 °F 29.86 in East 3.0 mph 4.0 mph 48 % 0.00 in 708.00 W/m2
09:56 64.9 °F 45.3 °F 29.85 in Calm   4.0 mph 49 % 0.00 in 721.00 W/m2
10:01 65.2 °F 40.3 °F 29.85 in Calm   2.0 mph 40 % 0.00 in 731.00 W/m2
10:06 65.8 °F 40.8 °F 29.86 in Calm   2.0 mph 40 % 0.00 in 744.00 W/m2
10:11 66.6 °F 40.9 °F 29.86 in ENE 1.0 mph 4.0 mph 39 % 0.00 in 758.00 W/m2
10:16 67.5 °F 47.1 °F 29.86 in Calm   3.0 mph 48 % 0.00 in 763.00 W/m2
10:21 68.2 °F 48.9 °F 29.86 in Calm   3.0 mph 50 % 0.00 in 773.00 W/m2
10:26 68.5 °F 48.1 °F 29.86 in Calm   3.0 mph 48 % 0.00 in 786.00 W/m2
10:31 68.8 °F 47.2 °F 29.86 in ENE 1.0 mph 3.0 mph 46 % 0.00 in 800.00 W/m2
10:36 68.9 °F 47.9 °F 29.86 in ENE 1.0 mph 6.0 mph 47 % 0.00 in 810.00 W/m2
10:41 69.1 °F 48.0 °F 29.86 in Calm   3.0 mph 47 % 0.00 in 821.00 W/m2
10:46 69.2 °F 49.2 °F 29.86 in Calm     49 % 0.00 in 831.00 W/m2
10:51 69.5 °F 47.8 °F 29.86 in East 1.0 mph 4.0 mph 46 % 0.00 in 837.00 W/m2
10:56 70.0 °F 48.9 °F 29.86 in Calm   2.0 mph 47 % 0.00 in 844.00 W/m2
11:01 70.3 °F 46.2 °F 29.86 in WNW 2.0 mph 4.0 mph 42 % 0.00 in 851.00 W/m2
11:06 70.5 °F 46.3 °F 29.86 in West 1.0 mph 4.0 mph 42 % 0.00 in 861.00 W/m2
11:11 70.6 °F 42.4 °F 29.86 in Calm   4.0 mph 36 % 0.00 in 874.00 W/m2
11:16 70.8 °F 44.0 °F 29.86 in WNW 1.0 mph 2.0 mph 38 % 0.00 in 884.00 W/m2
11:21 71.0 °F 42.7 °F 29.86 in Calm   2.0 mph 36 % 0.00 in 893.00 W/m2
11:26 71.2 °F 43.6 °F 29.86 in Calm   3.0 mph 37 % 0.00 in 900.00 W/m2
11:31 71.4 °F 43.8 °F 29.86 in Calm   6.0 mph 37 % 0.00 in 909.00 W/m2
11:36 71.6 °F 45.4 °F 29.85 in Calm   5.0 mph 39 % 0.00 in 912.00 W/m2
11:41 71.8 °F 47.5 °F 29.85 in WNW 3.0 mph 3.0 mph 42 % 0.00 in 914.00 W/m2
11:43 71.9 °F 48.2 °F 29.85 in WNW 3.0 mph 6.0 mph 43 % 0.00 in 916.00 W/m2
11:48 72.1 °F 49.0 °F 29.85 in Calm   5.0 mph 44 % 0.00 in 926.00 W/m2
11:53 72.3 °F 49.8 °F 29.85 in Calm   4.0 mph 45 % 0.00 in 928.00 W/m2
11:58 72.5 °F 50.0 °F 29.85 in WNW 3.0 mph 6.0 mph 45 % 0.00 in 935.00 W/m2
12:03 72.6 °F 48.2 °F 29.85 in WNW 4.0 mph 4.0 mph 42 % 0.00 in 939.00 W/m2
12:08 72.8 °F 50.2 °F 29.85 in WNW 2.0 mph 5.0 mph 45 % 0.00 in 942.00 W/m2
12:13 73.1 °F 48.7 °F 29.85 in WNW 3.0 mph 3.0 mph 42 % 0.00 in 944.00 W/m2
12:18 73.3 °F 48.8 °F 29.84 in WNW 3.0 mph 6.0 mph 42 % 0.00 in 947.00 W/m2
12:23 73.5 °F 50.3 °F 29.84 in WNW 2.0 mph 7.0 mph 44 % 0.00 in 947.00 W/m2
12:28 73.9 °F 50.0 °F 29.84 in NW 1.0 mph 6.0 mph 43 % 0.00 in 947.00 W/m2
12:33 74.3 °F 49.8 °F 29.84 in WNW 3.0 mph 5.0 mph 42 % 0.00 in 953.00 W/m2
12:38 74.5 °F 49.3 °F 29.83 in WNW 2.0 mph 5.0 mph 41 % 0.00 in 954.00 W/m2
12:43 74.4 °F 49.2 °F 29.83 in WNW 3.0 mph 8.0 mph 41 % 0.00 in 951.00 W/m2
12:49 74.2 °F 49.7 °F 29.83 in NW 9.0 mph 9.0 mph 42 % 0.00 in 954.00 W/m2
12:54 74.1 °F 50.2 °F 29.83 in WNW 4.0 mph 10.0 mph 43 % 0.00 in 954.00 W/m2
12:59 74.0 °F 50.1 °F 29.83 in Calm   6.0 mph 43 % 0.00 in 949.00 W/m2
13:04 74.0 °F 50.1 °F 29.83 in NW 4.0 mph 6.0 mph 43 % 0.00 in 953.00 W/m2
13:09 73.9 °F 50.6 °F 29.83 in NW 2.0 mph 6.0 mph 44 % 0.00 in 947.00 W/m2
13:14 74.1 °F 52.0 °F 29.83 in WNW 2.0 mph 5.0 mph 46 % 0.00 in 949.00 W/m2
13:19 74.2 °F 50.3 °F 29.83 in NW 1.0 mph 6.0 mph 43 % 0.00 in 946.00 W/m2
13:24 74.3 °F 51.6 °F 29.83 in NNW 4.0 mph 9.0 mph 45 % 0.00 in 939.00 W/m2
13:29 74.4 °F 51.1 °F 29.83 in WSW 3.0 mph 6.0 mph 44 % 0.00 in 944.00 W/m2
13:34 74.8 °F 50.8 °F 29.83 in Calm   9.0 mph 43 % 0.00 in 942.00 W/m2
13:39 74.9 °F 51.5 °F 29.83 in Calm   3.0 mph 44 % 0.00 in 937.00 W/m2
13:44 75.1 °F 51.1 °F 29.83 in NW 1.0 mph 7.0 mph 43 % 0.00 in 932.00 W/m2
13:49 75.0 °F 50.4 °F 29.83 in West 4.0 mph 6.0 mph 42 % 0.00 in 926.00 W/m2
13:54 74.9 °F 50.9 °F 29.83 in WNW 3.0 mph 5.0 mph 43 % 0.00 in 925.00 W/m2
13:59 74.9 °F 49.0 °F 29.83 in West 2.0 mph 6.0 mph 40 % 0.00 in 921.00 W/m2
14:04 75.0 °F 50.4 °F 29.83 in Calm   9.0 mph 42 % 0.00 in 918.00 W/m2
14:09 75.3 °F 49.3 °F 29.82 in Calm   4.0 mph 40 % 0.00 in 888.00 W/m2
14:14 75.5 °F 49.5 °F 29.83 in Calm   7.0 mph 40 % 0.00 in 907.00 W/m2
14:19 75.3 °F 46.5 °F 29.82 in NNW 6.0 mph 7.0 mph 36 % 0.00 in 904.00 W/m2
14:24 75.1 °F 47.8 °F 29.83 in WNW 2.0 mph 7.0 mph 38 % 0.00 in 867.00 W/m2
14:29 75.0 °F 49.1 °F 29.83 in West 4.0 mph 7.0 mph 40 % 0.00 in 889.00 W/m2
14:34 75.2 °F 49.9 °F 29.82 in Calm   5.0 mph 41 % 0.00 in 886.00 W/m2
14:39 75.3 °F 51.3 °F 29.82 in Calm   11.0 mph 43 % 0.00 in 884.00 W/m2
14:44 75.5 °F 51.5 °F 29.82 in NNW 5.0 mph 6.0 mph 43 % 0.00 in 826.00 W/m2
14:49 75.5 °F 46.7 °F 29.82 in NW 3.0 mph 9.0 mph 36 % 0.00 in 860.00 W/m2
14:54 75.5 °F 48.8 °F 29.82 in Calm   4.0 mph 39 % 0.00 in 847.00 W/m2
14:59 75.4 °F 47.3 °F 29.82 in NNW 4.0 mph 8.0 mph 37 % 0.00 in 840.00 W/m2
15:04 75.2 °F 49.2 °F 29.82 in Calm   6.0 mph 40 % 0.00 in 830.00 W/m2
15:09 75.1 °F 47.8 °F 29.82 in Calm   9.0 mph 38 % 0.00 in 777.00 W/m2
15:14 75.2 °F 49.9 °F 29.82 in Calm   5.0 mph 41 % 0.00 in 802.00 W/m2
15:19 75.3 °F 49.3 °F 29.82 in NW 8.0 mph 10.0 mph 40 % 0.00 in 791.00 W/m2
15:24 75.4 °F 49.4 °F 29.82 in WSW 4.0 mph 9.0 mph 40 % 0.00 in 784.00 W/m2
15:29 75.5 °F 49.5 °F 29.81 in West 4.0 mph 8.0 mph 40 % 0.00 in 773.00 W/m2
15:34 75.6 °F 48.9 °F 29.81 in West 9.0 mph 9.0 mph 39 % 0.00 in 763.00 W/m2
15:39 75.6 °F 48.9 °F 29.81 in NW 4.0 mph 8.0 mph 39 % 0.00 in 752.00 W/m2
15:44 75.7 °F 49.7 °F 29.81 in Calm   7.0 mph 40 % 0.00 in 591.00 W/m2
15:49 75.6 °F 48.9 °F 29.81 in WNW 3.0 mph 8.0 mph 39 % 0.00 in 708.00 W/m2
15:54 75.6 °F 49.6 °F 29.81 in West 3.0 mph 7.0 mph 40 % 0.00 in 721.00 W/m2
15:59 75.6 °F 49.6 °F 29.81 in Calm   6.0 mph 40 % 0.00 in 703.00 W/m2
16:04 75.7 °F 49.0 °F 29.81 in WNW 4.0 mph 9.0 mph 39 % 0.00 in 636.00 W/m2
16:09 75.7 °F 48.3 °F 29.80 in Calm   9.0 mph 38 % 0.00 in 689.00 W/m2
16:14 75.8 °F 49.8 °F 29.80 in WNW 2.0 mph 8.0 mph 40 % 0.00 in 668.00 W/m2
16:19 75.8 °F 49.8 °F 29.80 in West 4.0 mph 8.0 mph 40 % 0.00 in 656.00 W/m2
16:24 75.8 °F 49.8 °F 29.80 in NW 4.0 mph 9.0 mph 40 % 0.00 in 643.00 W/m2
16:29 75.7 °F 48.3 °F 29.80 in WNW 1.0 mph 9.0 mph 38 % 0.00 in 617.00 W/m2
16:34 75.6 °F 48.2 °F 29.81 in Calm   5.0 mph 38 % 0.00 in 570.00 W/m2
16:39 75.5 °F 48.1 °F 29.80 in WNW 3.0 mph 7.0 mph 38 % 0.00 in 589.00 W/m2
16:44 75.4 °F 48.8 °F 29.80 in WNW 4.0 mph 5.0 mph 39 % 0.00 in 566.00 W/m2
16:49 75.3 °F 49.3 °F 29.80 in WNW 4.0 mph 5.0 mph 40 % 0.00 in 552.00 W/m2
16:54 75.4 °F 50.1 °F 29.80 in Calm   7.0 mph 41 % 0.00 in 548.00 W/m2
16:59 75.4 °F 50.1 °F 29.80 in West 4.0 mph 8.0 mph 41 % 0.00 in 534.00 W/m2
17:04 75.5 °F 50.2 °F 29.80 in WNW 2.0 mph 3.0 mph 41 % 0.00 in 519.00 W/m2
17:09 75.6 °F 50.9 °F 29.80 in Calm   7.0 mph 42 % 0.00 in 497.00 W/m2
17:15 75.7 °F 50.4 °F 29.80 in West 3.0 mph 4.0 mph 41 % 0.00 in 478.00 W/m2
17:20 75.8 °F 51.1 °F 29.80 in Calm   4.0 mph 42 % 0.00 in 408.00 W/m2
17:26 75.8 °F 51.7 °F 29.80 in WNW 3.0 mph 5.0 mph 43 % 0.00 in 413.00 W/m2
17:31 75.6 °F 51.5 °F 29.80 in Calm   5.0 mph 43 % 0.00 in 425.00 W/m2
17:36 75.5 °F 50.8 °F 29.81 in Calm   6.0 mph 42 % 0.00 in 417.00 W/m2
17:41 75.4 °F 51.4 °F 29.80 in Calm   3.0 mph 43 % 0.00 in 406.00 W/m2
17:46 75.3 °F 51.9 °F 29.81 in Calm   6.0 mph 44 % 0.00 in 380.00 W/m2
17:51 75.2 °F 50.6 °F 29.81 in Calm   7.0 mph 42 % 0.00 in 371.00 W/m2
17:56 75.2 °F 50.6 °F 29.81 in Calm   5.0 mph 42 % 0.00 in 357.00 W/m2
18:01 75.1 °F 50.5 °F 29.80 in Calm     42 % 0.00 in 330.00 W/m2
18:06 75.0 °F 51.0 °F 29.80 in West 3.0 mph 5.0 mph 43 % 0.00 in 315.00 W/m2
18:11 74.9 °F 51.5 °F 29.80 in West 1.0 mph 4.0 mph 44 % 0.00 in 206.00 W/m2
18:16 74.8 °F 51.5 °F 29.80 in Calm   3.0 mph 44 % 0.00 in 248.00 W/m2
18:21 74.6 °F 52.5 °F 29.80 in Calm   3.0 mph 46 % 0.00 in 220.00 W/m2
18:26 74.5 °F 52.4 °F 29.80 in Calm   1.0 mph 46 % 0.00 in 255.00 W/m2
18:31 74.4 °F 53.5 °F 29.80 in WSW 1.0 mph 2.0 mph 48 % 0.00 in 230.00 W/m2
18:36 74.2 °F 51.5 °F 29.80 in Calm   3.0 mph 45 % 0.00 in 200.00 W/m2
18:41 74.0 °F 51.3 °F 29.80 in Calm   3.0 mph 45 % 0.00 in 195.00 W/m2
18:46 73.9 °F 53.6 °F 29.80 in Calm   1.0 mph 49 % 0.00 in 163.00 W/m2
18:51 73.7 °F 52.8 °F 29.80 in West 1.0 mph 3.0 mph 48 % 0.00 in 128.00 W/m2
18:56 73.5 °F 52.1 °F 29.80 in Calm   2.0 mph 47 % 0.00 in 132.00 W/m2
19:01 73.4 °F 52.0 °F 29.80 in Calm   2.0 mph 47 % 0.00 in 104.00 W/m2
19:06 73.3 °F 52.5 °F 29.80 in Calm   4.0 mph 48 % 0.00 in 97.00 W/m2
19:11 73.1 °F 52.8 °F 29.80 in West 2.0 mph 5.0 mph 49 % 0.00 in 79.00 W/m2
19:16 72.9 °F 53.2 °F 29.80 in Calm   2.0 mph 50 % 0.00 in 54.00 W/m2
19:21 72.7 °F 53.5 °F 29.80 in Calm   4.0 mph 51 % 0.00 in 54.00 W/m2
19:26 72.4 °F 52.7 °F 29.80 in Calm     50 % 0.00 in 46.00 W/m2
19:31 72.2 °F 52.5 °F 29.80 in Calm     50 % 0.00 in 35.00 W/m2
19:36 71.9 °F 52.8 °F 29.80 in Calm     51 % 0.00 in 23.00 W/m2
19:41 71.6 °F 52.5 °F 29.81 in Calm     51 % 0.00 in 19.00 W/m2
19:46 71.3 °F 52.8 °F 29.81 in Calm     52 % 0.00 in 16.00 W/m2
19:51 71.0 °F 53.0 °F 29.81 in Calm   1.0 mph 53 % 0.00 in 11.00 W/m2
19:56 70.7 °F 52.8 °F 29.81 in Calm     53 % 0.00 in 9.00 W/m2
20:01 70.3 °F 52.4 °F 29.81 in Calm     53 % 0.00 in 7.00 W/m2
20:06 70.0 °F 52.1 °F 29.81 in Calm   1.0 mph 53 % 0.00 in 5.00 W/m2
20:11 69.8 °F 52.4 °F 29.82 in Calm     54 % 0.00 in 0.00 W/m2
20:16 69.4 °F 52.0 °F 29.82 in Calm   1.0 mph 54 % 0.00 in 0.00 W/m2
20:21 69.0 °F 51.7 °F 29.82 in Calm   1.0 mph 54 % 0.00 in 0.00 W/m2
20:26 68.7 °F 51.9 °F 29.82 in Calm   1.0 mph 55 % 0.00 in 0.00 W/m2
20:31 68.4 °F 51.6 °F 29.82 in Calm     55 % 0.00 in 0.00 W/m2
20:36 68.0 °F 51.7 °F 29.82 in Calm     56 % 0.00 in 0.00 W/m2
20:41 67.7 °F 51.5 °F 29.82 in Calm     56 % 0.00 in 0.00 W/m2
20:46 67.5 °F 51.3 °F 29.83 in Calm     56 % 0.00 in 0.00 W/m2
20:51 67.2 °F 51.0 °F 29.83 in Calm   2.0 mph 56 % 0.00 in 0.00 W/m2
20:56 66.9 °F 50.7 °F 29.83 in Calm   2.0 mph 56 % 0.00 in 0.00 W/m2
21:01 66.7 °F 51.5 °F 29.83 in Calm   2.0 mph 58 % 0.00 in 0.00 W/m2
21:06 66.4 °F 50.7 °F 29.83 in Calm     57 % 0.00 in 0.00 W/m2
21:11 66.2 °F 51.0 °F 29.83 in Calm     58 % 0.00 in 0.00 W/m2
21:16 66.0 °F 50.8 °F 29.83 in SSE 1.0 mph 1.0 mph 58 % 0.00 in 0.00 W/m2
21:21 65.8 °F 50.6 °F 29.83 in Calm   1.0 mph 58 % 0.00 in 0.00 W/m2
21:26 65.6 °F 50.9 °F 29.83 in Calm     59 % 0.00 in 0.00 W/m2
21:31 65.4 °F 50.7 °F 29.83 in Calm   1.0 mph 59 % 0.00 in 0.00 W/m2
21:36 65.2 °F 51.0 °F 29.83 in Calm   2.0 mph 60 % 0.00 in 0.00 W/m2
21:41 65.1 °F 50.4 °F 29.83 in Calm   2.0 mph 59 % 0.00 in 0.00 W/m2
21:46 65.0 °F 50.8 °F 29.83 in Calm   2.0 mph 60 % 0.00 in 0.00 W/m2
21:51 64.8 °F 50.6 °F 29.84 in Calm   4.0 mph 60 % 0.00 in 0.00 W/m2
21:56 64.7 °F 50.5 °F 29.84 in Calm   2.0 mph 60 % 0.00 in 0.00 W/m2
22:01 64.6 °F 50.9 °F 29.84 in Calm     61 % 0.00 in 0.00 W/m2
22:06 64.5 °F 50.8 °F 29.84 in Calm     61 % 0.00 in 0.00 W/m2
22:11 64.4 °F 50.7 °F 29.84 in Calm     61 % 0.00 in 0.00 W/m2
22:12 64.4 °F 50.7 °F 29.84 in Calm   1.0 mph 61 % 0.00 in 0.00 W/m2
22:17 64.3 °F 51.0 °F 29.85 in SE 1.0 mph 5.0 mph 62 % 0.00 in 0.00 W/m2
22:22 64.2 °F 51.4 °F 29.84 in SE 5.0 mph 6.0 mph 63 % 0.00 in 0.00 W/m2
22:27 64.0 °F 51.6 °F 29.84 in SE 2.0 mph 7.0 mph 64 % 0.00 in 0.00 W/m2
22:32 63.9 °F 51.5 °F 29.84 in Calm   9.0 mph 64 % 0.00 in 0.00 W/m2
22:37 63.8 °F 51.4 °F 29.85 in Calm   8.0 mph 64 % 0.00 in 0.00 W/m2
22:42 63.7 °F 51.7 °F 29.84 in Calm   2.0 mph 65 % 0.00 in 0.00 W/m2
22:47 63.6 °F 51.6 °F 29.85 in SE 2.0 mph 7.0 mph 65 % 0.00 in 0.00 W/m2
22:52 63.5 °F 51.5 °F 29.85 in SE 2.0 mph 5.0 mph 65 % 0.00 in 0.00 W/m2
22:57 63.4 °F 51.4 °F 29.84 in SE 4.0 mph 5.0 mph 65 % 0.00 in 0.00 W/m2
23:02 63.3 °F 51.3 °F 29.85 in SE 4.0 mph 5.0 mph 65 % 0.00 in 0.00 W/m2
23:07 63.2 °F 51.7 °F 29.85 in Calm   6.0 mph 66 % 0.00 in 0.00 W/m2
23:12 63.2 °F 51.2 °F 29.85 in SE 2.0 mph 7.0 mph 65 % 0.00 in 0.00 W/m2
23:17 63.1 °F 51.6 °F 29.85 in SE 2.0 mph 5.0 mph 66 % 0.00 in 0.00 W/m2
23:22 63.0 °F 51.5 °F 29.85 in SE 5.0 mph 7.0 mph 66 % 0.00 in 0.00 W/m2
23:27 62.9 °F 51.4 °F 29.85 in SE 1.0 mph 4.0 mph 66 % 0.00 in 0.00 W/m2
23:32 62.7 °F 51.6 °F 29.85 in Calm   6.0 mph 67 % 0.00 in 0.00 W/m2
23:37 62.6 °F 51.5 °F 29.85 in SE 1.0 mph 5.0 mph 67 % 0.00 in 0.00 W/m2
23:42 62.6 °F 51.1 °F 29.85 in SE 4.0 mph 5.0 mph 66 % 0.00 in 0.00 W/m2
23:47 62.5 °F 51.4 °F 29.85 in Calm   6.0 mph 67 % 0.00 in 0.00 W/m2
23:52 62.4 °F 51.3 °F 29.85 in ESE 2.0 mph 7.0 mph 67 % 0.00 in 0.00 W/m2
23:57 62.3 °F 51.6 °F 29.84 in ESE 2.0 mph 7.0 mph 68 % 0.00 in 0.00 W/m2
Juneau County Weather
Compliments of Weather Underground - 4.5 mb
 WU-history PHP script courtesy of   Juneau County Weather.
powered by Cumulus v1.9.3 (1059)
Ambient Weather VWS v14.00
Top Contact Website Map Copyright © 2007 - 2018 Foresthillweather.com Never base important decisions on this or any weather information obtained from the Internet